CZ-6A DEB, 54278

Orbit data source: Space-Track

CZ-6A DEB, 54278 is space debris in SSO originally from a launch on Fri, 11 Nov 2022 UTC launched from the Taiyaun Space Center, China (TSC). Debris objects in space refer to the collection of defunct objects orbiting the Earth. Examples of debris include non-operational satellites, rocket bodies, and fragments generated from explosions, collisions, or faulty payload assembly.

Loading next visibility...
Identifier
54278, 2022-151V
Orbit
SSO
Country
Flag of CNCN / PRC
Related business
Manufacturer
SAST
Mission
Spacecraft
Bus & Motor
Unknown
Mass
Unknown
Launch date (UTC)
2022-11-11 (4 years ago)
Launch vehicle
Unknown
Launch site
Taiyaun Space Center, China (TSC)
Object type
Payload
Rocket body
Debris
Shape & HBR
Unknown shape, 0.1 m
Radar Cross Section
Small (<0.1 m²)

Expand to show TLE details & history
Last TLE update: 2 days ago

TLE from 2 days ago
0 CZ-6A DEB
1 54278U 22151V   26171.45540878  .00003890  00000-0  13451-2 0  9991
2 54278  98.6642 167.7742 0108414 150.0965 210.6472 14.33036096185844
Epoch: 2026-06-20T10:55Z
TLE epoch observation values (Epoch: 2026-06-20T10:55:47.318Z)
Latitude
-0.00004°
Longitude
95.15726°
Altitude
851.544 km
Speed
7.392 km/s
True Right ascension
11h 11m 05s
True Declination
0° 00' 00"
Sunlit
Object was in daylight at epoch
Visualization orbit readout
Latitude
Unknown
Longitude
Unknown
Altitude
Unknown
Speed
Unknown
Apparent Right ascension
Unknown
Apparent Declination
Unknown
Sunlit
N/A
Visualization observer readout
Local Sidereal Time
21:54:59
Azimuth
Unknown
Elevation
Unknown
Doppler factor
Unknown
Orbital elements
Apogee altitude
856.329 km
Perigee altitude
701.148 km
Semi-major axis
7,156.876 km
Eccentricity
0.01084
Inclination
98.6642°
RAAN
167.7742°
Arg. of periapsis
150.0965°
True anomaly
210.02123°
Mean anomaly
210.6472°
Eccentric anomaly
210.33349°
Mean motion
3.58474 °/min
Orbital period
100.43 mins
BSTAR
0.0013451
Loading maneuver chart data...
Computing Atmospheric mass density...
Loading historical data...
Loading historical data...
Loading historical data...
Loading historical data...
Loading historical data...
Loading historical data...
Loading historical data...

Documentation

Showing up to 5 results
|